,

(GMT )
Al Udeid

Weather History for KQIR - December, 2012

Change the Weather History Date:

Monday, December 3, 2012

  Actual Average Record
Temperature  
Mean Temperature 64 °F -  
Max Temperature 73 °F - - ()
Min Temperature 54 °F - - ()
Degree Days  
Heating Degree Days 2    
Growing Degree Days 14 (Base 50)    
Moisture  
Dew Point 49 °F    
Average Humidity 59    
Maximum Humidity 80    
Minimum Humidity 44    
Precipitation  
Precipitation 0.00 in - - ()
Sea Level Pressure  
Sea Level Pressure 30.04 in    
Wind  
Wind Speed 8 mph ()    
Max Wind Speed 13 mph    
Max Gust Speed -    
Visibility 6.2 miles    
Events      
Averages and records for this station are not official NWS values.
T = Trace of Precipitation, MM = Missing Value Source: Averaged Metar Reports

Daily Weather History Graph

Daily Weather History Graph

Search for Another Location

Airport or City:

Astronomy

Dec. 03, 2012 Rise Set
Actual Time 6:04 AM +03 4:44 PM +03
Civil Twilight 5:39 AM +03 5:09 PM +03
Nautical Twilight 5:11 AM +03 5:37 PM +03
Astronomical Twilight 4:43 AM +03 6:05 PM +03
Moon 8:54 PM +03 (12/3) 9:26 AM +03 (12/3)
Length of Visible Light 11h 29m
Length of Day
10h 39m
Waning Gibbous, 81% of the Moon is Illuminated
Dec 3
Waning Gibbous
Dec 6
Last Quarter
Dec 13
New
Dec 20
First Quarter
Dec 28
Full

Hourly Weather History & Observations

Time (+03) Temp. Dew Point Humidity Pressure Visibility Wind Dir Wind Speed Gust Speed Precip Events Conditions
12:55 AM 59.7 °F 47.7 °F 64% 30.04 in 6.2 mi NW 9.2 mph - N/A   Clear
1:55 AM 59.7 °F 46.0 °F 61% 30.02 in 6.2 mi WNW 8.1 mph - N/A   Clear
2:55 AM 57.4 °F 45.9 °F 65% 30.03 in 6.2 mi West 6.9 mph - N/A   Clear
3:55 AM 56.7 °F 46.8 °F 69% 30.03 in 6.2 mi WNW 6.9 mph - N/A   Clear
4:55 AM 55.2 °F 46.4 °F 72% 30.04 in 6.2 mi West 8.1 mph - N/A   Clear
5:55 AM 54.5 °F 46.6 °F 75% 30.06 in 6.2 mi West 8.1 mph - N/A   Clear
6:55 AM 56.7 °F 50.5 °F 80% 30.08 in 6.2 mi West 8.1 mph - N/A   Clear
7:55 AM 62.1 °F 53.4 °F 73% 30.09 in 6.2 mi WNW 10.4 mph - N/A   Clear
8:55 AM 66.4 °F 54.7 °F 66% 30.10 in 6.2 mi NW 12.7 mph - N/A   Clear
9:55 AM 69.6 °F 53.1 °F 56% 30.09 in 6.2 mi NW 12.7 mph - N/A   Clear
10:55 AM 71.4 °F 52.2 °F 51% 30.07 in 6.2 mi NW 11.5 mph - N/A   Clear
11:55 AM 72.0 °F 52.2 °F 50% 30.04 in 6.2 mi Variable 5.8 mph - N/A   Clear
12:55 PM 73.2 °F 50.5 °F 45% 30.01 in 6.2 mi WNW 4.6 mph - N/A   Clear
1:55 PM 73.6 °F 50.2 °F 44% 29.99 in 6.2 mi NW 8.1 mph - N/A   Clear
2:55 PM 73.2 °F 51.4 °F 46% 29.99 in 6.2 mi WNW 11.5 mph - N/A   Clear
3:55 PM 72.1 °F 50.5 °F 46% 29.99 in 6.2 mi NNW 8.1 mph - N/A   Clear
4:55 PM 70.0 °F 51.3 °F 51% 30.00 in 6.2 mi NW 11.5 mph - N/A   Clear
5:55 PM 67.5 °F 51.1 °F 56% 30.02 in 6.2 mi NW 10.4 mph - N/A   Clear
6:55 PM 66.6 °F 47.1 °F 50% 30.03 in 6.2 mi NNW 11.5 mph - N/A   Clear
7:55 PM 64.4 °F 48.6 °F 56% 30.04 in 6.2 mi NNW 8.1 mph - N/A   Clear
8:55 PM 62.2 °F 48.4 °F 60% 30.04 in 6.2 mi NNW 6.9 mph - N/A   Clear
9:55 PM 61.2 °F 47.1 °F 60% 30.04 in 6.2 mi NW 6.9 mph - N/A   Clear
10:55 PM 59.0 °F 46.4 °F 63% 30.03 in 6.2 mi WNW 6.9 mph - N/A   Clear
11:55 PM 57.7 °F 45.9 °F 65% 30.02 in 6.2 mi WNW 6.9 mph - N/A   Clear